BEIDOU-3 M23

Last updated on Wed Aug 26 2026 00:03:35 GMT+0000 (Coordinated Universal Time)

1 44543U 19061B 26237.24184972 -.00000007 00000+0 00000+0 0 9990 2 44543 54.3947 180.3686 0006015 354.4522 97.2175 1.86227521 47087
UTC large
Height (km)
Speed (km/s)
/
Latitude / Longitude
Inclination (degrees)
Orbital Period (minutes)
Azimuth
Elevation
Range (km)
Doppler Factor

Next 0 passes for location: London (51.5072 / 0.1276)

No passes found over London.
BEIDOU-3 M23